Regional Weather Roundup
Issued by NWS Little Rock, AR

Current Version | Previous Version | Text Only | Print | Product List | Glossary On
Versions: 1 2 3 4 5 6 7 8 9 10 11 12 13 14 15 16 17 18 19 20 21 22 23 24 25 26 27 28 29 30 31 32 33 34 35 36 37 38 39 40 41 42 43 44 45 46 47 48 49 50
000
ASUS44 KLZK 130705
RWRLZK

WEATHER ROUNDUP FOR ARKANSAS
NATIONAL WEATHER SERVICE LITTLE ROCK AR
200 AM CDT SUN JUL 13 2014

NOTE: "FAIR" INDICATES FEW OR NO CLOUDS BELOW 12,000 FEET WITH NO
SIGNIFICANT WEATHER AND/OR OBSTRUCTIONS TO VISIBILITY.

ARZ001-003-010-029-130800-
NORTHWEST ARKANSAS

CITY           SKY/WX    TMP DP  RH WIND       PRES   REMARKS
FAYETTEVILLE   CLEAR     69  67  93 S5        30.09F
FORT SMITH     CLEAR     78  73  84 E5        30.05F
HARRISON       CLEAR     73  68  84 CALM      30.09F
BENTONVILLE    CLEAR     73  64  73 S5        30.09F
ROGERS         CLEAR     73  65  75 S7        30.09F
SILOAM SPGS    CLEAR     75  61  60 SE7       30.09F
HIGHFILL       CLEAR     71  67  87 S5        30.08F
$$

ARZ004-005-016-130800-
NORTH CENTRAL ARKANSAS

CITY           SKY/WX    TMP DP  RH WIND       PRES   REMARKS
BATESVILLE     CLEAR     81  73  78 CALM      30.06F HX  85
FLIPPIN        CLEAR     73  66  78 S3        30.06F
MTN HOME       CLEAR     74  70  87 S3        30.05F
$$

ARZ040-041-130800-
WEST CENTRAL ARKANSAS

CITY           SKY/WX    TMP DP  RH WIND       PRES   REMARKS
MENA           CLEAR     73 N/A N/A CALM      30.10F
MOUNT IDA      CLEAR     71  70  96 CALM      30.06F FOG
$$

ARZ009-017-025-026-028-130800-
NORTHEAST ARKANSAS

CITY           SKY/WX    TMP DP  RH WIND       PRES   REMARKS
CORNING        FAIR      77  77 100 SW6       30.04F
JONESBORO      CLEAR     79  74  84 S6        30.04F
NEWPORT        CLEAR     78  77  97 S6        30.06F
WALNUT RIDGE   CLEAR     79  73  83 SW8       30.04F
BLYTHEVILLE    CLEAR     78  73  84 S5        30.05F
$$

ARZ022-023-033-042-044-130800-
CENTRAL ARKANSAS

CITY           SKY/WX    TMP DP  RH WIND       PRES   REMARKS
LITTLE ROCK    CLEAR     79  72  79 CALM      30.06F
N LITTLE ROCK    N/A     78  74  87 SW5       30.06F
SEARCY         CLEAR     76  76 100 VRB3      30.06F
HOT SPRINGS    CLEAR     73  70  90 NE5       30.08F
RUSSELLVILLE   CLEAR     75  72  90 CALM      30.05F
CLINTON        FAIR      73  72  94 CALM      30.07F FOG
$$

ARZ036-130800-
EAST ARKANSAS

CITY           SKY/WX    TMP DP  RH WIND       PRES   REMARKS
WEST MEMPHIS   CLEAR     76  75  97 CALM      30.05F
$$

ARZ050-053-066-070-073-130800-
SOUTHWEST ARKANSAS

CITY           SKY/WX    TMP DP  RH WIND       PRES   REMARKS
ARKADELPHIA    FAIR      74  74 100 CALM      30.07F FOG
CAMDEN         CLEAR     75  72  88 CALM      30.06F
TEXARKANA      CLEAR     80  71  74 S6        30.07S
EL DORADO      CLEAR     74  73  97 CALM      30.08F
DE QUEEN       CLEAR     72  71  97 CALM      30.05F FOG
$$

ARZ056-057-069-130800-
SOUTHEAST ARKANSAS

CITY           SKY/WX    TMP DP  RH WIND       PRES   REMARKS
PINE BLUFF     CLEAR     77  73  87 SW3       30.07F
MONTICELLO     CLEAR     75  72  90 CALM      30.07F

$$





USA.gov is the U.S. government's official web portal to all federal, state and local government web resources and services.